Weather History for KSTC - August, 2013

Change the Weather History Date:

Thursday, August 8, 2013

  Actual Average Record
Temperature  
Mean Temperature 64 °F 69 °F  
Max Temperature 76 °F 81 °F 96 °F (1947)
Min Temperature 51 °F 57 °F 43 °F (1904)
Degree Days  
Heating Degree Days 1 1  
Month to date heating degree days 8 8  
Since 1 June heating degree days 121 103  
Since 1 July heating degree days 34 25  
Cooling Degree Days 0 5  
Month to date cooling degree days 7 40  
Year to date cooling degree days 334 342  
Since 1 June cooling degree days 323 317  
Growing Degree Days 14 (Base 50)    
Moisture  
Dew Point 56 °F    
Average Humidity 73    
Maximum Humidity 100    
Minimum Humidity 46    
Precipitation  
Precipitation 0.11 in 0.12 in 2.14 in (2009)
Month to date precipitation 0.58 0.89  
Year to date precipitation 20.06 16.68  
Snow  
Snow 0.00 in 0.00 in 0.00 in ()
Month to date snowfall 0.0 0.0  
Since 1 June snowfall 0.0 0.0  
Since 1 July snowfall 0.0 0.0  
Snow Depth 0.00 in    
Sea Level Pressure  
Sea Level Pressure 30.04 in    
Wind  
Wind Speed 4 mph (WSW)    
Max Wind Speed 15 mph    
Max Gust Speed 20 mph    
Visibility 9 miles    
Events Rain    
T = Trace of Precipitation, MM = Missing Value Source: NWS Daily Summary

Daily Weather History Graph

Daily Weather History Graph

Search for Another Location

Airport or City:

Trip Planner

Search our weather history database for the weather conditions in past years. The results will help you decide how hot, cold, wet, or windy it might be!

Date:

Astronomy

Aug. 08, 2013 Rise Set
Actual Time 6:08 AM CDT 8:34 PM CDT
Civil Twilight 5:35 AM CDT 9:07 PM CDT
Nautical Twilight 4:53 AM CDT 9:48 PM CDT
Astronomical Twilight 4:06 AM CDT 10:35 PM CDT
Moon 8:04 AM CDT (8/8) 9:02 PM CDT (8/8)
Length of Visible Light 15h 31m
Length of Day
14h 25m
Waxing Crescent, 3% of the Moon is Illuminated
Aug 8
Waxing Crescent
Aug 14
First Quarter
Aug 20
Full
Aug 28
Last Quarter
Sep 5
New

Hourly Weather History & Observations

Time (CDT) Temp. Dew Point Humidity Pressure Visibility Wind Dir Wind Speed Gust Speed Precip Events Conditions
12:53 AM 54.0 °F 52.0 °F 93% 30.05 in 10.0 mi Calm Calm - N/A   Clear
1:53 AM 52.0 °F 51.1 °F 97% 30.06 in 10.0 mi Calm Calm - N/A   Clear
2:53 AM 53.1 °F 51.1 °F 93% 30.06 in 10.0 mi Calm Calm - N/A   Partly Cloudy
3:53 AM 54.0 °F 52.0 °F 93% 30.04 in 10.0 mi Calm Calm - N/A   Clear
4:53 AM 54.0 °F 53.1 °F 97% 30.04 in 10.0 mi Calm Calm - N/A   Mostly Cloudy
5:53 AM 52.0 °F 51.1 °F 97% 30.03 in 8.0 mi Calm Calm - N/A   Partly Cloudy
6:53 AM 55.0 °F 53.1 °F 93% 30.03 in 10.0 mi Calm Calm - N/A   Mostly Cloudy
7:53 AM 57.9 °F 55.0 °F 90% 30.06 in 10.0 mi Calm Calm - N/A   Overcast
8:53 AM 61.0 °F 57.0 °F 87% 30.07 in 10.0 mi SSW 3.5 mph - N/A   Mostly Cloudy
9:53 AM 66.9 °F 55.0 °F 66% 30.08 in 10.0 mi WSW 11.5 mph - N/A   Mostly Cloudy
10:53 AM 69.1 °F 54.0 °F 58% 30.08 in 10.0 mi WSW 12.7 mph - N/A   Partly Cloudy
11:53 AM 70.0 °F 54.0 °F 57% 30.08 in 10.0 mi WSW 11.5 mph - N/A   Overcast
12:53 PM 72.0 °F 54.0 °F 53% 30.06 in 10.0 mi SSW 8.1 mph - N/A   Clear
1:53 PM 73.9 °F 55.0 °F 52% 30.05 in 10.0 mi South 9.2 mph - N/A   Scattered Clouds
2:53 PM 73.9 °F 54.0 °F 50% 30.04 in 10.0 mi SW 8.1 mph - N/A   Mostly Cloudy
3:53 PM 73.9 °F 54.0 °F 50% 30.03 in 10.0 mi West 8.1 mph - N/A   Overcast
4:53 PM 75.0 °F 54.0 °F 48% 30.01 in 10.0 mi West 8.1 mph - N/A   Mostly Cloudy
5:53 PM 75.0 °F 55.0 °F 50% 30.01 in 10.0 mi Calm Calm - N/A   Mostly Cloudy
6:53 PM 72.0 °F 57.0 °F 59% 30.01 in 10.0 mi West 5.8 mph - N/A   Scattered Clouds
7:29 PM 68.0 °F 60.8 °F 78% 29.99 in 1.8 mi West 11.5 mph 16.1 mph 0.00 in Rain Heavy Rain
7:39 PM 66.2 °F 60.8 °F 83% 29.99 in 5.0 mi ESE 5.8 mph - 0.11 in Rain Light Rain
7:53 PM 66.9 °F 62.1 °F 84% 30.01 in 10.0 mi Calm Calm - 0.11 in   Mostly Cloudy
8:53 PM 64.9 °F 63.0 °F 93% 30.01 in 10.0 mi Calm Calm - N/A   Partly Cloudy
9:53 PM 64.0 °F 61.0 °F 90% 30.02 in 10.0 mi SW 4.6 mph - N/A   Partly Cloudy
10:53 PM 62.1 °F 60.1 °F 93% 30.02 in 10.0 mi Calm Calm - N/A   Clear
11:53 PM 60.1 °F 59.0 °F 96% 30.02 in 10.0 mi WNW 3.5 mph - N/A   Clear